Location: Sungai Laei
(2.6000°N, 113.7167°E)
Time: 16:16:10
(UTC+00:00)

ARIANE 5 DEB (SYLDA) - Visible Passes

Search period start: 06 October 2022 00:00
Search period end: 16 October 2022 00:00
Orbit: 364 x 18290 km, 2.5° (Epoch: 05 October)

Date Brightness Start Highest point End Pass type
(mag) Time Alt. Az. Time Alt. Az. Time Alt. Az.
06 Oct 5.7 09:51:58 10° W 11:35:51 75° S 11:41:45 31° ESE visible
07 Oct 5.1 20:44:46 35° W 20:48:45 90° S 21:40:03 10° E visible
08 Oct 5.1 12:02:20 10° W 12:39:04 72° S 12:39:36 70° SSE visible
08 Oct 6.7 18:30:25 17° E 18:30:25 17° E 18:33:26 10° E visible
09 Oct 6.2 21:42:39 10° W 21:52:12 89° S 00:19:17 10° E visible
10 Oct 6.1 13:24:13 10° W 13:37:10 38° WSW 13:37:10 38° WSW visible
10 Oct 5.1 19:27:55 57° E 19:27:55 57° E 19:43:32 10° E visible
11 Oct 6.0 08:51:50 10° W 11:14:46 77° S 11:22:38 22° E visible
12 Oct 7.3 14:33:38 10° W 14:34:24 12° W 14:34:24 12° W visible
12 Oct 4.7 20:25:06 50° W 20:27:33 90° S 21:05:45 10° E visible
13 Oct 5.1 11:28:11 10° W 12:17:37 74° S 12:19:43 58° ESE visible
13 Oct 7.1 18:10:25 10° E 18:10:25 10° E 18:10:35 10° E visible
14 Oct 5.9 21:21:58 15° W 21:29:39 89° S 23:15:14 10° E visible
15 Oct 5.6 12:57:19 10° W 13:16:31 52° WSW 13:16:31 52° WSW visible
15 Oct 5.7 19:07:08 39° E 19:07:08 39° E 19:17:38 10° E visible
